This is the latest recevied weather packets stored in our database for station/object N5JXS. If no packets are shown the sender has not sent any weather packets the latest 10 day(s).
| Time | Temp. | Humidity | Pressure | Rain* | Wind** | Luminosity | Snow |
|---|---|---|---|---|---|---|---|
| 1788181873 | 15° C | 58% | 1028.1 hPa | 0 mm | - | 20 W/m² | - |
| 1788181568 | 15° C | 57% | 1028 hPa | 0 mm | - | 18 W/m² | - |
| 1788181263 | 15° C | 56% | 1027.7 hPa | 0 mm | - | 13 W/m² | - |
| 1788180961 | 15° C | 59% | 1027.7 hPa | 0 mm | - | 11 W/m² | - |
| 1788180657 | 15° C | 56% | 1027.6 hPa | 0 mm | - | 8 W/m² | - |
| 1788180353 | 15° C | 59% | 1027.6 hPa | 0 mm | - | 6 W/m² | - |
| 1788180049 | 15° C | 57% | 1027.1 hPa | 0 mm | - | 3 W/m² | - |
| 1788179748 | 15° C | 57% | 1027.3 hPa | 0 mm | - | 2 W/m² | - |
| 1788179443 | 15° C | 56% | 1027.3 hPa | 0 mm | - | 1 W/m² | - |
| 1788179142 | 14.44° C | 58% | 1027.2 hPa | 0 mm | - | 0 W/m² | - |
| 1788178838 | 14.44° C | 58% | 1027.2 hPa | 0 mm | - | 0 W/m² | - |
| 1788178533 | 13.89° C | 60% | 1027.3 hPa | 0 mm | - | 0 W/m² | - |
| 1788178229 | 13.89° C | 62% | 1027.3 hPa | 0 mm | - | 0 W/m² | - |
| 1788177928 | 14.44° C | 60% | 1027.1 hPa | 0 mm | - | 0 W/m² | - |
| 1788177624 | 15° C | 60% | 1027.6 hPa | 0 mm | - | 0 W/m² | - |
| 1788177320 | 15° C | 58% | 1027.1 hPa | 0 mm | - | 0 W/m² | - |
| 1788177015 | 16.11° C | 55% | 1027.1 hPa | 0 mm | - | 0 W/m² | - |
| 1788176714 | 16.67° C | 51% | 1027 hPa | 0 mm | - | 0 W/m² | - |
| 1788176409 | 17.22° C | 50% | 1027.2 hPa | 0 mm | - | 0 W/m² | - |
| 1788176108 | 17.22° C | 49% | 1027.2 hPa | 0 mm | - | 0 W/m² | - |
| 1788175804 | 17.78° C | 48% | 1027.1 hPa | 0 mm | - | 0 W/m² | - |
| 1788175504 | 17.22° C | 49% | 1027 hPa | 0 mm | - | 0 W/m² | - |
| 1788175199 | 17.22° C | 50% | 1027 hPa | 0 mm | - | 0 W/m² | - |
| 1788174895 | 16.67° C | 50% | 1027 hPa | 0 mm | - | 0 W/m² | - |
| 1788174590 | 15.56° C | 56% | 1027.1 hPa | 0 mm | - | 0 W/m² | - |
* Rain latest hour (hover to see other rain measurements)
** Current wind speed in m/s (hover to see current wind gust speed)